Tracking 30922 objects as of 2-Jul-2025
HD Live streaming from Space Station
objects crossing your sky now

COSMOS 1275 DEB

Track COSMOS 1275 DEB now!
10-day predictions


NORAD ID: 12759
Int'l Code: 1981-053DC
Perigee: 853.0 km
Apogee: 919.3 km
Inclination: 82.9 °
Period: 102.5 minutes
Semi major axis: 7257 km
RCS: 0.0125 m2 (small)
Launch date: June 4, 1981
Source: Commonwealth of Independent States (former USSR) (CIS)
Launch site: PLESETSK MISSILE AND SPACE COMPLEX (PKMTR)

Note: This is SATELLITE DEBRIS
Your satellite tracking list
ION-MK01
Track 1 satellite(s)




NASA's NSSDC Master Catalog

Two Line Element Set (TLE):
1 12759U 81053DC  25182.87358477  .00000768  00000-0  46939-3 0  9993
2 12759  82.8619 330.1767 0045706 195.3435 328.3464 14.04288863233078
Source of the keplerian elements: AFSPC